Year,Month,Day,Hour,Minute,Value (Times are PST for windspeed in km/hr)
2016,10,03,00,00,0.00
2016,10,03,00,01,0.00
2016,10,03,00,02,0.00
2016,10,03,00,03,0.00
2016,10,03,00,04,0.00
2016,10,03,00,05,0.00
2016,10,03,00,06,0.40
2016,10,03,00,07,0.20
2016,10,03,00,08,0.00
2016,10,03,00,09,0.00
2016,10,03,00,10,0.00
2016,10,03,00,11,0.00
2016,10,03,00,12,0.00
2016,10,03,00,13,0.00
2016,10,03,00,14,0.00
2016,10,03,00,15,0.00
2016,10,03,00,16,0.00
2016,10,03,00,17,0.00
2016,10,03,00,18,0.00
2016,10,03,00,19,0.00
2016,10,03,00,20,0.00
2016,10,03,00,21,0.00
2016,10,03,00,22,0.00
2016,10,03,00,23,0.30
2016,10,03,00,24,0.00
2016,10,03,00,25,0.00
2016,10,03,00,26,0.00
2016,10,03,00,27,0.00
2016,10,03,00,28,0.00
2016,10,03,00,29,0.00
2016,10,03,00,30,0.00
2016,10,03,00,31,0.00
2016,10,03,00,32,0.00
2016,10,03,00,33,0.00
2016,10,03,00,34,0.00
2016,10,03,00,35,0.00
2016,10,03,00,36,0.00
2016,10,03,00,37,0.00
2016,10,03,00,38,0.00
2016,10,03,00,39,0.00
2016,10,03,00,40,0.00
2016,10,03,00,41,0.00
2016,10,03,00,42,0.00
2016,10,03,00,43,0.10
2016,10,03,00,44,0.00
2016,10,03,00,45,0.30
2016,10,03,00,46,0.20
2016,10,03,00,47,0.00
2016,10,03,00,48,0.00
2016,10,03,00,49,0.50
2016,10,03,00,50,1.00
2016,10,03,00,51,2.20
2016,10,03,00,52,2.70
2016,10,03,00,53,1.80
2016,10,03,00,54,2.40
2016,10,03,00,55,2.40
2016,10,03,00,56,3.20
2016,10,03,00,57,3.90
2016,10,03,00,58,0.30
2016,10,03,00,59,0.00
2016,10,03,01,00,0.00
2016,10,03,01,01,0.00
2016,10,03,01,02,0.00
2016,10,03,01,03,0.00
2016,10,03,01,04,0.00
2016,10,03,01,05,0.00
2016,10,03,01,06,0.00
2016,10,03,01,07,0.00
2016,10,03,01,08,0.00
2016,10,03,01,09,0.00
2016,10,03,01,10,0.00
2016,10,03,01,11,0.00
2016,10,03,01,12,0.00
2016,10,03,01,13,0.00
2016,10,03,01,14,0.00
2016,10,03,01,15,0.00
2016,10,03,01,16,0.00
2016,10,03,01,17,0.00
2016,10,03,01,18,0.00
2016,10,03,01,19,0.00
2016,10,03,01,20,0.00
2016,10,03,01,21,0.00
2016,10,03,01,22,0.00
2016,10,03,01,23,0.30
2016,10,03,01,24,0.00
2016,10,03,01,25,3.60
2016,10,03,01,26,6.80
2016,10,03,01,27,5.60
2016,10,03,01,28,6.30
2016,10,03,01,29,7.00
2016,10,03,01,30,6.80
2016,10,03,01,31,7.40
2016,10,03,01,32,5.30
2016,10,03,01,33,0.10
2016,10,03,01,34,0.10
2016,10,03,01,35,1.90
2016,10,03,01,36,6.90
2016,10,03,01,37,4.90
2016,10,03,01,38,3.90
2016,10,03,01,39,0.00
2016,10,03,01,40,0.20
2016,10,03,01,41,0.00
2016,10,03,01,42,0.00
2016,10,03,01,43,0.00
2016,10,03,01,44,0.10
2016,10,03,01,45,1.00
2016,10,03,01,46,0.00
2016,10,03,01,47,0.00
2016,10,03,01,48,0.00
2016,10,03,01,49,0.00
2016,10,03,01,50,0.00
2016,10,03,01,51,0.30
2016,10,03,01,52,0.40
2016,10,03,01,53,2.00
2016,10,03,01,54,0.70
2016,10,03,01,55,0.10
2016,10,03,01,56,0.40
2016,10,03,01,57,0.00
2016,10,03,01,58,0.00
2016,10,03,01,59,1.30
2016,10,03,02,00,0.40
2016,10,03,02,01,0.00
2016,10,03,02,02,0.00
2016,10,03,02,03,1.20
2016,10,03,02,04,7.00
2016,10,03,02,05,7.10
2016,10,03,02,06,7.50
2016,10,03,02,07,8.10
2016,10,03,02,08,10.90
2016,10,03,02,09,9.60
2016,10,03,02,10,8.30
2016,10,03,02,11,8.40
2016,10,03,02,12,10.40
2016,10,03,02,13,10.30
2016,10,03,02,14,17.00
2016,10,03,02,15,18.80
2016,10,03,02,16,9.00
2016,10,03,02,17,6.90
2016,10,03,02,18,6.80
2016,10,03,02,19,6.60
2016,10,03,02,20,7.80
2016,10,03,02,21,6.90
2016,10,03,02,22,6.80
2016,10,03,02,23,8.00
2016,10,03,02,24,8.70
2016,10,03,02,25,7.80
2016,10,03,02,26,9.70
2016,10,03,02,27,8.00
2016,10,03,02,28,7.70
2016,10,03,02,29,8.30
2016,10,03,02,30,9.30
2016,10,03,02,31,7.80
2016,10,03,02,32,9.20
2016,10,03,02,33,10.10
2016,10,03,02,34,11.90
2016,10,03,02,35,10.90
2016,10,03,02,36,11.20
2016,10,03,02,37,10.80
2016,10,03,02,38,9.70
2016,10,03,02,39,7.80
2016,10,03,02,40,7.50
2016,10,03,02,41,7.10
2016,10,03,02,42,8.00
2016,10,03,02,43,24.50
2016,10,03,02,44,29.90
2016,10,03,02,45,19.10
2016,10,03,02,46,33.70
2016,10,03,02,47,26.60
2016,10,03,02,48,16.30
2016,10,03,02,49,15.30
2016,10,03,02,50,13.00
2016,10,03,02,51,18.30
2016,10,03,02,52,18.60
2016,10,03,02,53,10.10
2016,10,03,02,54,16.00
2016,10,03,02,55,22.70
2016,10,03,02,56,7.30
2016,10,03,02,57,12.20
2016,10,03,02,58,9.10
2016,10,03,02,59,24.90
2016,10,03,03,00,27.40
2016,10,03,03,01,7.30
2016,10,03,03,02,6.20
2016,10,03,03,03,6.20
2016,10,03,03,04,5.30
2016,10,03,03,05,7.30
2016,10,03,03,06,7.60
2016,10,03,03,07,7.00
2016,10,03,03,08,11.50
2016,10,03,03,09,8.70
2016,10,03,03,10,9.60
2016,10,03,03,11,8.40
2016,10,03,03,12,9.90
2016,10,03,03,13,8.70
2016,10,03,03,14,9.80
2016,10,03,03,15,10.10
2016,10,03,03,16,10.30
2016,10,03,03,17,11.40
2016,10,03,03,18,9.60
2016,10,03,03,19,8.00
2016,10,03,03,20,6.80
2016,10,03,03,21,6.80
2016,10,03,03,22,6.20
2016,10,03,03,23,4.20
2016,10,03,03,24,2.20
2016,10,03,03,25,0.40
2016,10,03,03,26,0.20
2016,10,03,03,27,0.60
2016,10,03,03,28,3.70
2016,10,03,03,29,3.20
2016,10,03,03,30,3.50
2016,10,03,03,31,3.80
2016,10,03,03,32,4.30
2016,10,03,03,33,4.70
2016,10,03,03,34,6.00
2016,10,03,03,35,6.90
2016,10,03,03,36,7.10
2016,10,03,03,37,6.20
2016,10,03,03,38,6.80
2016,10,03,03,39,6.40
2016,10,03,03,40,5.40
2016,10,03,03,41,7.50
2016,10,03,03,42,7.50
2016,10,03,03,43,7.60
2016,10,03,03,44,7.80
2016,10,03,03,45,9.90
2016,10,03,03,46,9.00
2016,10,03,03,47,8.80
2016,10,03,03,48,8.50
2016,10,03,03,49,8.10
2016,10,03,03,50,8.30
2016,10,03,03,51,8.80
2016,10,03,03,52,9.50
2016,10,03,03,53,9.40
2016,10,03,03,54,7.70
2016,10,03,03,55,6.90
2016,10,03,03,56,7.10
2016,10,03,03,57,10.30
2016,10,03,03,58,9.00
2016,10,03,03,59,6.30
2016,10,03,04,00,8.10
2016,10,03,04,01,7.80
2016,10,03,04,02,7.90
2016,10,03,04,03,7.80
2016,10,03,04,04,8.10
2016,10,03,04,05,13.30
2016,10,03,04,06,6.40
2016,10,03,04,07,7.50
2016,10,03,04,08,8.80
2016,10,03,04,09,8.90
2016,10,03,04,10,9.90
2016,10,03,04,11,8.00
2016,10,03,04,12,6.90
2016,10,03,04,13,6.30
2016,10,03,04,14,6.80
2016,10,03,04,15,5.90
2016,10,03,04,16,6.80
2016,10,03,04,17,7.00
2016,10,03,04,18,13.70
2016,10,03,04,19,11.10
2016,10,03,04,20,8.70
2016,10,03,04,21,8.10
2016,10,03,04,22,32.30
2016,10,03,04,23,33.20
2016,10,03,04,24,7.30
2016,10,03,04,25,4.70
2016,10,03,04,26,3.40
2016,10,03,04,27,3.70
2016,10,03,04,28,16.90
2016,10,03,04,29,17.40
2016,10,03,04,30,2.10
2016,10,03,04,31,1.20
2016,10,03,04,32,3.10
2016,10,03,04,33,3.80
2016,10,03,04,34,3.40
2016,10,03,04,35,4.10
2016,10,03,04,36,10.50
2016,10,03,04,37,10.60
2016,10,03,04,38,6.10
2016,10,03,04,39,18.30
2016,10,03,04,40,3.50
2016,10,03,04,41,3.20
2016,10,03,04,42,6.30
2016,10,03,04,43,6.90
2016,10,03,04,44,15.80
2016,10,03,04,45,3.60
2016,10,03,04,46,2.70
2016,10,03,04,47,0.20
2016,10,03,04,48,0.60
2016,10,03,04,49,0.00
2016,10,03,04,50,0.40
2016,10,03,04,51,1.80
2016,10,03,04,52,3.20
2016,10,03,04,53,2.90
2016,10,03,04,54,3.60
2016,10,03,04,55,4.10
2016,10,03,04,56,3.00
2016,10,03,04,57,3.80
2016,10,03,04,58,4.30
2016,10,03,04,59,3.50
2016,10,03,05,00,3.20
2016,10,03,05,01,4.20
2016,10,03,05,02,3.50
2016,10,03,05,03,3.10
2016,10,03,05,04,2.70
2016,10,03,05,05,2.60
2016,10,03,05,06,3.10
2016,10,03,05,07,2.60
2016,10,03,05,08,4.10
2016,10,03,05,09,3.70
2016,10,03,05,10,1.40
2016,10,03,05,11,0.00
2016,10,03,05,12,3.30
2016,10,03,05,13,3.20
2016,10,03,05,14,0.80
2016,10,03,05,15,0.40
2016,10,03,05,16,0.00
2016,10,03,05,17,0.00
2016,10,03,05,18,0.10
2016,10,03,05,19,0.00
2016,10,03,05,20,0.00
2016,10,03,05,21,0.10
2016,10,03,05,22,0.00
2016,10,03,05,23,0.00
2016,10,03,05,24,0.00
2016,10,03,05,25,0.00
2016,10,03,05,26,0.00
2016,10,03,05,27,0.60
2016,10,03,05,28,2.30
2016,10,03,05,29,3.00
2016,10,03,05,30,0.40
2016,10,03,05,31,0.20
2016,10,03,05,32,2.20
2016,10,03,05,33,0.30
2016,10,03,05,34,1.00
2016,10,03,05,35,3.30
2016,10,03,05,36,3.00
2016,10,03,05,37,4.00
2016,10,03,05,38,3.20
2016,10,03,05,39,2.20
2016,10,03,05,40,0.50
2016,10,03,05,41,0.00
2016,10,03,05,42,0.00
2016,10,03,05,43,0.40
2016,10,03,05,44,0.00
2016,10,03,05,45,0.00
2016,10,03,05,46,0.00
2016,10,03,05,47,0.00
2016,10,03,05,48,1.50
2016,10,03,05,49,1.70
2016,10,03,05,50,0.00
2016,10,03,05,51,0.00
2016,10,03,05,52,0.00
2016,10,03,05,53,0.10
2016,10,03,05,54,0.00
2016,10,03,05,55,2.60
2016,10,03,05,56,5.10
2016,10,03,05,57,3.60
2016,10,03,05,58,4.30
2016,10,03,05,59,6.00
2016,10,03,06,00,3.90
2016,10,03,06,01,3.90
2016,10,03,06,02,3.40
2016,10,03,06,03,2.60
2016,10,03,06,04,3.10
2016,10,03,06,05,2.80
2016,10,03,06,06,4.30
2016,10,03,06,07,4.20
2016,10,03,06,08,3.90
2016,10,03,06,09,4.30
2016,10,03,06,10,3.00
2016,10,03,06,11,2.70
2016,10,03,06,12,3.00
2016,10,03,06,13,0.00
2016,10,03,06,14,1.40
2016,10,03,06,15,1.00
2016,10,03,06,16,3.40
2016,10,03,06,17,3.60
2016,10,03,06,18,3.40
2016,10,03,06,19,3.90
2016,10,03,06,20,4.00
2016,10,03,06,21,3.20
2016,10,03,06,22,1.00
2016,10,03,06,23,2.30
2016,10,03,06,24,2.60
2016,10,03,06,25,2.30
2016,10,03,06,26,0.80
2016,10,03,06,27,0.90
2016,10,03,06,28,4.10
2016,10,03,06,29,2.80
2016,10,03,06,30,3.10
2016,10,03,06,31,1.00
2016,10,03,06,32,2.20
2016,10,03,06,33,0.30
2016,10,03,06,34,0.00
2016,10,03,06,35,0.20
2016,10,03,06,36,2.30
2016,10,03,06,37,2.80
2016,10,03,06,38,0.70
2016,10,03,06,39,0.50
2016,10,03,06,40,0.10
2016,10,03,06,41,0.00
2016,10,03,06,42,0.80
2016,10,03,06,43,2.60
2016,10,03,06,44,3.20
2016,10,03,06,45,3.30
2016,10,03,06,46,5.50
2016,10,03,06,47,4.70
2016,10,03,06,48,4.30
2016,10,03,06,49,2.70
2016,10,03,06,50,2.10
2016,10,03,06,51,0.00
2016,10,03,06,52,1.80
2016,10,03,06,53,2.40
2016,10,03,06,54,4.90
2016,10,03,06,55,5.10
2016,10,03,06,56,5.50
2016,10,03,06,57,7.20
2016,10,03,06,58,7.30
2016,10,03,06,59,5.70
2016,10,03,07,00,3.40
2016,10,03,07,01,4.00
2016,10,03,07,02,4.80
2016,10,03,07,03,2.70
2016,10,03,07,04,3.90
2016,10,03,07,05,3.70
2016,10,03,07,06,0.00
2016,10,03,07,07,0.40
2016,10,03,07,08,3.80
2016,10,03,07,09,5.30
2016,10,03,07,10,7.60
2016,10,03,07,11,5.90
2016,10,03,07,12,6.00
2016,10,03,07,13,6.80
2016,10,03,07,14,9.60
2016,10,03,07,15,6.90
2016,10,03,07,16,7.90
2016,10,03,07,17,8.10
2016,10,03,07,18,8.80
2016,10,03,07,19,5.80
2016,10,03,07,20,5.00
2016,10,03,07,21,6.40
2016,10,03,07,22,6.30
2016,10,03,07,23,3.50
2016,10,03,07,24,5.10
2016,10,03,07,25,5.10
2016,10,03,07,26,4.20
2016,10,03,07,27,6.00
2016,10,03,07,28,6.40
2016,10,03,07,29,5.10
2016,10,03,07,30,4.10
2016,10,03,07,31,4.20
2016,10,03,07,32,6.00
2016,10,03,07,33,7.30
2016,10,03,07,34,3.80
2016,10,03,07,35,1.80
2016,10,03,07,36,3.70
2016,10,03,07,37,3.00
2016,10,03,07,38,3.40
2016,10,03,07,39,8.50
2016,10,03,07,40,8.40
2016,10,03,07,41,8.70
2016,10,03,07,42,7.10
2016,10,03,07,43,6.30
2016,10,03,07,44,7.60
2016,10,03,07,45,8.90
2016,10,03,07,46,6.00
2016,10,03,07,47,4.10
2016,10,03,07,48,5.50
2016,10,03,07,49,5.50
2016,10,03,07,50,8.40
2016,10,03,07,51,8.30
2016,10,03,07,52,5.00
2016,10,03,07,53,6.20
2016,10,03,07,54,5.80
2016,10,03,07,55,4.60
2016,10,03,07,56,0.00
2016,10,03,07,57,2.00
2016,10,03,07,58,6.70
2016,10,03,07,59,7.70
2016,10,03,08,00,7.60
2016,10,03,08,01,7.50
2016,10,03,08,02,14.30
2016,10,03,08,03,8.90
2016,10,03,08,04,4.90
2016,10,03,08,05,1.20
2016,10,03,08,06,3.80
2016,10,03,08,07,2.60
2016,10,03,08,08,2.90
2016,10,03,08,09,6.20
2016,10,03,08,10,3.80
2016,10,03,08,11,6.00
2016,10,03,08,12,2.50
2016,10,03,08,13,4.30
2016,10,03,08,14,2.90
2016,10,03,08,15,1.50
2016,10,03,08,16,3.30
2016,10,03,08,17,2.80
2016,10,03,08,18,0.30
2016,10,03,08,19,1.00
2016,10,03,08,20,1.80
2016,10,03,08,21,3.70
2016,10,03,08,22,4.70
2016,10,03,08,23,4.00
2016,10,03,08,24,5.20
2016,10,03,08,25,3.70
2016,10,03,08,26,2.60
2016,10,03,08,27,1.60
2016,10,03,08,28,2.50
2016,10,03,08,29,1.90
2016,10,03,08,30,3.80
2016,10,03,08,31,4.00
2016,10,03,08,32,5.00
2016,10,03,08,33,4.20
2016,10,03,08,34,3.00
2016,10,03,08,35,2.60
2016,10,03,08,36,5.90
2016,10,03,08,37,7.80
2016,10,03,08,38,6.40
2016,10,03,08,39,7.00
2016,10,03,08,40,4.40
2016,10,03,08,41,0.80
2016,10,03,08,42,0.00
2016,10,03,08,43,3.80
2016,10,03,08,44,6.00
2016,10,03,08,45,9.30
2016,10,03,08,46,12.60
2016,10,03,08,47,5.80
2016,10,03,08,48,4.70
2016,10,03,08,49,5.10
2016,10,03,08,50,8.00
2016,10,03,08,51,9.70
2016,10,03,08,52,9.80
2016,10,03,08,53,7.20
2016,10,03,08,54,17.10
2016,10,03,08,55,8.60
2016,10,03,08,56,14.40
2016,10,03,08,57,11.30
2016,10,03,08,58,12.20
2016,10,03,08,59,8.10
2016,10,03,09,00,13.10
2016,10,03,09,01,11.00
2016,10,03,09,02,10.00
2016,10,03,09,03,8.80
2016,10,03,09,04,11.40
2016,10,03,09,05,5.60
2016,10,03,09,06,11.00
2016,10,03,09,07,11.20
2016,10,03,09,08,7.80
2016,10,03,09,09,14.20
2016,10,03,09,10,8.80
2016,10,03,09,11,12.00
2016,10,03,09,12,19.10
2016,10,03,09,13,20.10
2016,10,03,09,14,29.00
2016,10,03,09,15,10.50
2016,10,03,09,16,38.30
2016,10,03,09,17,84.70
2016,10,03,09,18,76.00
2016,10,03,09,19,70.10
2016,10,03,09,20,16.80
2016,10,03,09,21,14.00
2016,10,03,09,22,12.00
2016,10,03,09,23,12.90
2016,10,03,09,24,16.00
2016,10,03,09,25,9.30
2016,10,03,09,26,11.30
2016,10,03,09,27,8.50
2016,10,03,09,28,6.60
2016,10,03,09,29,6.50
2016,10,03,09,30,13.00
2016,10,03,09,31,14.10
2016,10,03,09,32,13.40
2016,10,03,09,33,13.60
2016,10,03,09,34,17.50
2016,10,03,09,35,11.30
2016,10,03,09,36,17.10
2016,10,03,09,37,25.30
2016,10,03,09,38,17.50
2016,10,03,09,39,13.50
2016,10,03,09,40,11.40
2016,10,03,09,41,11.70
2016,10,03,09,42,12.70
2016,10,03,09,43,13.80
2016,10,03,09,44,8.50
2016,10,03,09,45,13.70
2016,10,03,09,46,9.90
2016,10,03,09,47,15.90
2016,10,03,09,48,8.20
2016,10,03,09,49,15.20
2016,10,03,09,50,9.70
2016,10,03,09,51,10.50
2016,10,03,09,52,15.50
2016,10,03,09,53,14.70
2016,10,03,09,54,7.70
2016,10,03,09,55,30.20
2016,10,03,09,56,35.80
2016,10,03,09,57,27.80
2016,10,03,09,58,24.60
2016,10,03,09,59,7.40
2016,10,03,10,00,13.40
2016,10,03,10,01,39.00
2016,10,03,10,02,27.90
2016,10,03,10,03,36.10
2016,10,03,10,04,34.10
2016,10,03,10,05,37.70
2016,10,03,10,06,34.40
2016,10,03,10,07,41.40
2016,10,03,10,08,38.50
2016,10,03,10,09,35.50
2016,10,03,10,10,34.70
2016,10,03,10,11,40.00
2016,10,03,10,12,39.50
2016,10,03,10,13,35.30
2016,10,03,10,14,34.40
2016,10,03,10,15,30.70
2016,10,03,10,16,26.80
2016,10,03,10,17,32.00
2016,10,03,10,18,33.20
2016,10,03,10,19,27.90
2016,10,03,10,20,36.80
2016,10,03,10,21,36.10
2016,10,03,10,22,34.00
2016,10,03,10,23,18.30
2016,10,03,10,24,18.10
2016,10,03,10,25,42.90
2016,10,03,10,26,26.20
2016,10,03,10,27,35.30
2016,10,03,10,28,17.40
2016,10,03,10,29,50.50
2016,10,03,10,30,34.10
2016,10,03,10,31,30.30
2016,10,03,10,32,30.30
2016,10,03,10,33,27.50
2016,10,03,10,34,25.30
2016,10,03,10,35,27.30
2016,10,03,10,36,25.20
2016,10,03,10,37,29.10
2016,10,03,10,38,30.10
2016,10,03,10,39,8.90
2016,10,03,10,40,16.10
2016,10,03,10,41,9.60
2016,10,03,10,42,4.80
2016,10,03,10,43,3.80
2016,10,03,10,44,11.20
2016,10,03,10,45,0.50
2016,10,03,10,46,8.50
2016,10,03,10,47,0.20
2016,10,03,10,48,15.60
2016,10,03,10,49,17.70
2016,10,03,10,50,27.20
2016,10,03,10,51,24.20
2016,10,03,10,52,25.70
2016,10,03,10,53,26.60
2016,10,03,10,54,21.60
2016,10,03,10,55,25.00
2016,10,03,10,56,29.60
2016,10,03,10,57,27.30
2016,10,03,10,58,36.00
2016,10,03,10,59,54.30
2016,10,03,11,00,36.20
2016,10,03,11,01,34.90
2016,10,03,11,02,43.60
2016,10,03,11,03,37.80
2016,10,03,11,04,36.70
2016,10,03,11,05,32.30
2016,10,03,11,06,35.60
2016,10,03,11,07,38.30
2016,10,03,11,08,16.90
2016,10,03,11,09,0.00
2016,10,03,11,10,0.00
2016,10,03,11,11,0.00
2016,10,03,11,12,18.50
2016,10,03,11,13,36.50
2016,10,03,11,14,40.10
2016,10,03,11,15,48.00
2016,10,03,11,16,43.50
2016,10,03,11,17,35.60
2016,10,03,11,18,26.90
2016,10,03,11,19,46.20
2016,10,03,11,20,42.30
2016,10,03,11,21,44.20
2016,10,03,11,22,19.70
2016,10,03,11,23,0.00
2016,10,03,11,24,0.00
2016,10,03,11,25,0.00
2016,10,03,11,26,0.00
2016,10,03,11,27,0.00
2016,10,03,11,28,0.00
2016,10,03,11,29,0.00
2016,10,03,11,30,0.00
2016,10,03,11,31,0.00
2016,10,03,11,32,19.20
2016,10,03,11,33,30.10
2016,10,03,11,34,41.60
2016,10,03,11,35,43.90
2016,10,03,11,36,41.00
2016,10,03,11,37,41.90
2016,10,03,11,38,43.00
2016,10,03,11,39,44.00
2016,10,03,11,40,43.90
2016,10,03,11,41,28.20
2016,10,03,11,42,29.20
2016,10,03,11,43,40.00
2016,10,03,11,44,31.00
2016,10,03,11,45,29.20
2016,10,03,11,46,30.90
2016,10,03,11,47,21.20
2016,10,03,11,48,0.00
2016,10,03,11,49,0.00
2016,10,03,11,50,0.00
2016,10,03,11,51,0.00
2016,10,03,11,52,0.00
2016,10,03,11,53,0.00
2016,10,03,11,54,0.00
2016,10,03,11,55,0.00
2016,10,03,11,56,27.40
2016,10,03,11,57,27.40
2016,10,03,11,58,23.70
2016,10,03,11,59,31.60
2016,10,03,12,00,29.20
2016,10,03,12,01,25.70
2016,10,03,12,02,29.30
2016,10,03,12,03,26.10
2016,10,03,12,04,29.00
2016,10,03,12,05,24.60
2016,10,03,12,06,30.30
2016,10,03,12,07,29.50
2016,10,03,12,08,25.10
2016,10,03,12,09,34.50
2016,10,03,12,10,36.80
2016,10,03,12,11,37.50
2016,10,03,12,12,29.10
2016,10,03,12,13,31.30
2016,10,03,12,14,27.40
2016,10,03,12,15,31.20
2016,10,03,12,16,25.20
2016,10,03,12,17,26.60
2016,10,03,12,18,33.10
2016,10,03,12,19,17.00
2016,10,03,12,20,17.10
2016,10,03,12,21,15.90
2016,10,03,12,22,17.00
2016,10,03,12,23,18.70
2016,10,03,12,24,17.20
2016,10,03,12,25,22.30
2016,10,03,12,26,23.30
2016,10,03,12,27,21.60
2016,10,03,12,28,26.60
2016,10,03,12,29,33.20
2016,10,03,12,30,35.30
2016,10,03,12,31,27.00
2016,10,03,12,32,12.70
2016,10,03,12,33,20.80
2016,10,03,12,34,18.50
2016,10,03,12,35,15.60
2016,10,03,12,36,10.40
2016,10,03,12,37,6.30
2016,10,03,12,38,9.30
2016,10,03,12,39,7.80
2016,10,03,12,40,11.60
2016,10,03,12,41,9.10
2016,10,03,12,42,3.30
2016,10,03,12,43,9.60
2016,10,03,12,44,24.80
2016,10,03,12,45,32.40
2016,10,03,12,46,30.00
2016,10,03,12,47,22.50
2016,10,03,12,48,18.40
2016,10,03,12,49,16.70
2016,10,03,12,50,21.00
2016,10,03,12,51,20.90
2016,10,03,12,52,18.20
2016,10,03,12,53,23.60
2016,10,03,12,54,22.50
2016,10,03,12,55,15.70
2016,10,03,12,56,18.30
2016,10,03,12,57,18.00
2016,10,03,12,58,22.20
2016,10,03,12,59,32.90
2016,10,03,13,00,27.90
2016,10,03,13,01,56.70
2016,10,03,13,02,44.90
2016,10,03,13,03,41.50
2016,10,03,13,04,52.10
2016,10,03,13,05,57.30
2016,10,03,13,06,32.30
2016,10,03,13,07,34.20
2016,10,03,13,08,31.70
2016,10,03,13,09,37.00
2016,10,03,13,10,42.60
2016,10,03,13,11,34.40
2016,10,03,13,12,26.10
2016,10,03,13,13,24.10
2016,10,03,13,14,21.20
2016,10,03,13,15,23.90
2016,10,03,13,16,27.80
2016,10,03,13,17,35.20
2016,10,03,13,18,54.80
2016,10,03,13,19,32.90
2016,10,03,13,20,25.70
2016,10,03,13,21,15.20
2016,10,03,13,22,0.10
2016,10,03,13,23,10.10
2016,10,03,13,24,20.90
2016,10,03,13,25,29.90
2016,10,03,13,26,34.00
2016,10,03,13,27,29.00
2016,10,03,13,28,25.70
2016,10,03,13,29,25.70
2016,10,03,13,30,21.50
2016,10,03,13,31,4.90
2016,10,03,13,32,0.00
2016,10,03,13,33,0.00
2016,10,03,13,34,0.00
2016,10,03,13,35,19.90
2016,10,03,13,36,23.20
2016,10,03,13,37,19.00
2016,10,03,13,38,27.60
2016,10,03,13,39,26.50
2016,10,03,13,40,28.80
2016,10,03,13,41,19.50
2016,10,03,13,42,24.60
2016,10,03,13,43,51.30
2016,10,03,13,44,67.80
2016,10,03,13,45,63.00
2016,10,03,13,46,61.90
2016,10,03,13,47,55.00
2016,10,03,13,48,78.00
2016,10,03,13,49,77.20
2016,10,03,13,50,85.10
2016,10,03,13,51,76.30
2016,10,03,13,52,65.30
2016,10,03,13,53,55.60
2016,10,03,13,54,52.00
2016,10,03,13,55,47.80
2016,10,03,13,56,37.90
2016,10,03,13,57,57.10
2016,10,03,13,58,64.10
2016,10,03,13,59,74.30
2016,10,03,14,00,75.80
2016,10,03,14,01,59.80
2016,10,03,14,02,65.30
2016,10,03,14,03,60.30
2016,10,03,14,04,40.10
2016,10,03,14,05,75.50
2016,10,03,14,06,60.60
2016,10,03,14,07,66.10
2016,10,03,14,08,78.80
2016,10,03,14,09,75.60
2016,10,03,14,10,80.70
2016,10,03,14,11,69.40
2016,10,03,14,12,66.80
2016,10,03,14,13,66.10
2016,10,03,14,14,55.10
2016,10,03,14,15,73.80
2016,10,03,14,16,63.00
2016,10,03,14,17,59.00
2016,10,03,14,18,54.90
2016,10,03,14,19,58.80
2016,10,03,14,20,72.60
2016,10,03,14,21,64.40
2016,10,03,14,22,79.50
2016,10,03,14,23,89.30
2016,10,03,14,24,98.90
2016,10,03,14,25,111.00
2016,10,03,14,26,112.20
2016,10,03,14,27,67.70
2016,10,03,14,28,50.00
2016,10,03,14,29,63.00
2016,10,03,14,30,57.60
2016,10,03,14,31,60.40
2016,10,03,14,32,64.90
2016,10,03,14,33,53.00
2016,10,03,14,34,45.90
2016,10,03,14,35,54.20
2016,10,03,14,36,58.70
2016,10,03,14,37,54.30
2016,10,03,14,38,48.00
2016,10,03,14,39,56.10
2016,10,03,14,40,60.10
2016,10,03,14,41,60.10
2016,10,03,14,42,56.10
2016,10,03,14,43,54.10
2016,10,03,14,44,49.60
2016,10,03,14,45,47.90
2016,10,03,14,46,48.80
2016,10,03,14,47,46.30
2016,10,03,14,48,54.40
2016,10,03,14,49,69.30
2016,10,03,14,50,85.90
2016,10,03,14,51,64.10
2016,10,03,14,52,68.70
2016,10,03,14,53,46.50
2016,10,03,14,54,58.80
2016,10,03,14,55,53.40
2016,10,03,14,56,69.10
2016,10,03,14,57,67.80
2016,10,03,14,58,51.50
2016,10,03,14,59,57.70
2016,10,03,15,00,54.30
2016,10,03,15,01,75.20
2016,10,03,15,02,91.40
2016,10,03,15,03,39.20
2016,10,03,15,04,47.80
2016,10,03,15,05,33.20
2016,10,03,15,06,41.60
2016,10,03,15,07,48.40
2016,10,03,15,08,64.90
2016,10,03,15,09,63.10
2016,10,03,15,10,60.70
2016,10,03,15,11,51.30
2016,10,03,15,12,57.00
2016,10,03,15,13,51.20
2016,10,03,15,14,56.80
2016,10,03,15,15,50.90
2016,10,03,15,16,55.10
2016,10,03,15,17,54.60
2016,10,03,15,18,52.00
2016,10,03,15,19,40.00
2016,10,03,15,20,38.20
2016,10,03,15,21,52.60
2016,10,03,15,22,66.00
2016,10,03,15,23,67.10
2016,10,03,15,24,65.10
2016,10,03,15,25,60.00
2016,10,03,15,26,43.00
2016,10,03,15,27,45.50
2016,10,03,15,28,40.70
2016,10,03,15,29,54.20
2016,10,03,15,30,48.90
2016,10,03,15,31,56.30
2016,10,03,15,32,78.20
2016,10,03,15,33,75.80
2016,10,03,15,34,78.50
2016,10,03,15,35,73.10
2016,10,03,15,36,76.00
2016,10,03,15,37,66.70
2016,10,03,15,38,78.80
2016,10,03,15,39,85.70
2016,10,03,15,40,104.60
2016,10,03,15,41,91.20
2016,10,03,15,42,73.20
2016,10,03,15,43,85.00
2016,10,03,15,44,78.00
2016,10,03,15,45,57.80
2016,10,03,15,46,50.70
2016,10,03,15,47,64.90
2016,10,03,15,48,77.00
2016,10,03,15,49,68.00
2016,10,03,15,50,65.60
2016,10,03,15,51,82.40
2016,10,03,15,52,67.30
2016,10,03,15,53,62.30
2016,10,03,15,54,62.30
2016,10,03,15,55,65.30
2016,10,03,15,56,63.50
2016,10,03,15,57,76.60
2016,10,03,15,58,93.50
2016,10,03,15,59,94.90
2016,10,03,16,00,92.30
2016,10,03,16,01,97.60
2016,10,03,16,02,80.90
2016,10,03,16,03,74.40
2016,10,03,16,04,90.60
2016,10,03,16,05,74.30
2016,10,03,16,06,56.00
2016,10,03,16,07,60.60
2016,10,03,16,08,70.20
2016,10,03,16,09,59.70
2016,10,03,16,10,55.00
2016,10,03,16,11,46.30
2016,10,03,16,12,37.60
2016,10,03,16,13,69.10
2016,10,03,16,14,49.20
2016,10,03,16,15,50.60
2016,10,03,16,16,50.10
2016,10,03,16,17,59.40
2016,10,03,16,18,62.10
2016,10,03,16,19,70.10
2016,10,03,16,20,83.00
2016,10,03,16,21,76.10
2016,10,03,16,22,60.40
2016,10,03,16,23,47.10
2016,10,03,16,24,62.40
2016,10,03,16,25,52.60
2016,10,03,16,26,49.20
2016,10,03,16,27,46.00
2016,10,03,16,28,40.60
2016,10,03,16,29,44.90
2016,10,03,16,30,43.40
2016,10,03,16,31,40.60
2016,10,03,16,32,50.80
2016,10,03,16,33,52.50
2016,10,03,16,34,67.90
2016,10,03,16,35,43.20
2016,10,03,16,36,50.20
2016,10,03,16,37,47.20
2016,10,03,16,38,60.00
2016,10,03,16,39,65.20
2016,10,03,16,40,62.20
2016,10,03,16,41,68.20
2016,10,03,16,42,72.40
2016,10,03,16,43,70.10
2016,10,03,16,44,56.80
2016,10,03,16,45,67.80
2016,10,03,16,46,58.70
2016,10,03,16,47,67.70
2016,10,03,16,48,59.20
2016,10,03,16,49,73.10
2016,10,03,16,50,47.60
2016,10,03,16,51,45.30
2016,10,03,16,52,51.10
2016,10,03,16,53,40.50
2016,10,03,16,54,46.20
2016,10,03,16,55,40.00
2016,10,03,16,56,57.40
2016,10,03,16,57,65.20
2016,10,03,16,58,56.50
2016,10,03,16,59,52.00
2016,10,03,17,00,54.20
2016,10,03,17,01,46.50
2016,10,03,17,02,51.60
2016,10,03,17,03,40.70
2016,10,03,17,04,40.90
2016,10,03,17,05,39.40
2016,10,03,17,06,49.20
2016,10,03,17,07,57.00
2016,10,03,17,08,61.40
2016,10,03,17,09,56.00
2016,10,03,17,10,49.70
2016,10,03,17,11,48.00
2016,10,03,17,12,45.70
2016,10,03,17,13,42.00
2016,10,03,17,14,48.90
2016,10,03,17,15,39.30
2016,10,03,17,16,39.30
2016,10,03,17,17,42.20
2016,10,03,17,18,37.30
2016,10,03,17,19,46.70
2016,10,03,17,20,52.30
2016,10,03,17,21,47.70
2016,10,03,17,22,36.40
2016,10,03,17,23,46.50
2016,10,03,17,24,50.10
2016,10,03,17,25,55.10
2016,10,03,17,26,59.30
2016,10,03,17,27,63.50
2016,10,03,17,28,53.70
2016,10,03,17,29,63.50
2016,10,03,17,30,66.00
2016,10,03,17,31,70.20
2016,10,03,17,32,51.00
2016,10,03,17,33,57.30
2016,10,03,17,34,53.60
2016,10,03,17,35,40.50
2016,10,03,17,36,38.80
2016,10,03,17,37,40.40
2016,10,03,17,38,54.60
2016,10,03,17,39,54.50
2016,10,03,17,40,42.60
2016,10,03,17,41,52.70
2016,10,03,17,42,43.30